#timestamp,LO_Frequency,Hit,StdDev 
1602889215.1,286046999.5,N
1602889235.9,286046998.4,N
1602889255.7,286046998.7,N
1602889275.6,286046999.0,N
1602889295.4,286046998.2,N
1602889315.2,286046998.6,N
1602889335.1,286046998.4,N
1602889336.0,286046998.4,N
1602889355.8,286046999.4,N
1602889375.6,286047001.2,N
1602889395.5,286046998.4,N
1602889415.3,286046998.4,N
1602889435.1,286046998.4,N
1602889455.9,286046998.5,N
1602889475.7,286047000.4,N
1602889495.5,286047000.0,N
1602889515.4,286047000.7,N
1602889535.2,286046998.2,N
1602889555.0,286047001.2,N
1602889555.9,286047001.2,N
1602889575.8,286046998.8,N
1602889595.6,286046996.5,Y
1602889615.4,286046999.0,P
1602889635.3,286046996.5,P
1602889655.1,286046998.4,N
1602889656.0,286046998.4,N
1602889675.8,286046998.6,N
1602889695.7,286046998.3,N
1602889715.5,286046999.6,N
1602889735.3,286046996.6,Y
1602889755.2,286047000.3,P
1602889775.9,286047002.6,N
1602889795.7,286047000.6,N
1602889815.6,286047000.3,N
1602889835.4,286046999.7,N
1602889855.2,286047000.3,N
1602889875.1,286047001.1,N
1602889876.0,286047001.1,N
1602889895.8,286047000.5,N
1602889915.6,286047000.6,N
1602889935.5,286047001.2,N
1602889955.3,286046998.3,N
1602889975.1,286047000.7,N
1602889995.9,286047000.9,N
1602890015.7,286046998.2,N
1602890035.5,286046998.2,N
1602890055.4,286047000.4,N
1602890075.2,286047000.1,N
1602890095.0,286047001.2,N
1602890095.9,286047001.2,N
1602890115.8,286047000.6,N
1602890135.6,286047000.6,N
1602890155.4,286047000.4,N
1602890175.3,286047001.2,N
1602890195.1,286047002.6,N
1602890215.8,286047000.3,N
1602890235.7,286047000.7,N
1602890255.5,286047001.1,N
1602890275.3,286047000.7,N
1602890295.2,286046998.9,N
1602890315.0,286046998.3,N
1602890315.9,286046998.3,N
1602890335.7,286047001.0,N
1602890355.6,286046999.2,N
1602890375.4,286046998.7,N
1602890395.2,286046998.4,N
1602890415.1,286046999.1,N
1602890416.0,286046999.1,N
1602890435.8,286046999.5,N
1602890455.6,286046998.8,N
1602890475.5,286046999.0,N
1602890495.3,286046998.9,N
1602890515.1,286046998.7,N
1602890535.9,286047001.1,N
1602890555.7,286046999.9,N
1602890575.5,286047000.4,N
1602890595.4,286046998.1,N
1602890615.2,286047002.3,N
1602890635.0,286047002.7,N
1602890635.9,286047002.7,N
1602890655.8,286047002.8,N
1602890675.6,286047000.6,N
1602890695.5,286046998.1,N
1602890715.3,286046999.9,N
1602890735.1,286047002.3,N
1602890755.9,286047002.4,N
1602890775.7,286047004.4,N
1602890795.5,286047003.9,N
1602890815.4,286047001.3,N
1602890835.2,286047003.6,N
1602890855.0,286047003.9,N
1602890855.9,286047003.9,N
1602890875.8,286047004.4,N
1602890895.6,286047004.0,N
1602890915.4,286047003.5,N
1602890935.3,286047003.0,N
1602890955.1,286047004.1,N
1602890956.0,286047004.1,N
1602890975.8,286047001.4,N
1602890995.7,286047003.2,N
1602891015.5,286047004.2,N
1602891035.3,286047003.0,N
1602891055.2,286047003.4,N
1602891075.9,286047004.2,N
1602891095.7,286047001.8,N
1602891115.6,286047001.4,N
1602891135.4,286047003.2,N
1602891155.2,286047003.0,N
1602891175.1,286047003.4,N
1602891176.0,286047003.4,N
1602891195.8,286047003.1,N
1602891215.6,286047003.1,N
1602891235.5,286047004.3,Y
1602891255.3,286047000.8,P
1602891275.1,286047000.6,N
1602891295.9,286047002.7,N
1602891315.7,286047002.6,N
1602891335.5,286047000.0,N
1602891355.4,286047002.3,N
1602891375.2,286047002.4,N
1602891395.0,286047001.6,N
1602891395.9,286047001.6,N
1602891415.8,286047001.4,N
1602891435.6,286047002.5,N
1602891455.4,286047000.9,N
1602891475.3,286047000.0,N
1602891495.1,286047000.4,N
1602891515.8,286047000.6,N
1602891535.7,286047000.9,N
1602891555.5,286047000.8,N
1602891575.3,286047000.4,N
1602891595.2,286047002.1,N
1602891615.0,286047001.4,N
1602891615.9,286047001.4,N
1602891635.7,286047002.4,N
1602891655.6,286047004.3,Y
1602891675.4,286047001.0,P
1602891695.3,286046998.2,P
1602891715.1,286046998.8,N
1602891716.0,286046998.8,N
1602891735.8,286047002.8,N
1602891755.7,286047000.9,N
1602891775.5,286047001.0,N
1602891795.3,286046998.9,N
1602891815.2,286046998.4,N
1602891835.9,286046998.2,N
1602891855.7,286046998.3,N
1602891875.6,286047000.8,N
1602891895.4,286046998.1,N
1602891915.2,286047001.1,N
1602891935.1,286046998.8,N
1602891936.0,286046998.8,N
1602891955.8,286046999.0,N
1602891975.6,286046999.0,N
1602891995.5,286046998.9,N
1602892015.3,286046999.5,N
1602892035.1,286046998.9,N
1602892055.9,286046999.2,N
1602892075.7,286046996.6,N
1602892095.5,286047000.7,N
1602892115.4,286046998.9,N
1602892135.2,286046998.8,N
1602892155.0,286046999.1,N
1602892155.9,286046999.1,N
1602892175.8,286046999.2,N
1602892195.6,286046997.1,N
1602892215.4,286046996.7,N
1602892235.3,286046999.0,N
1602892255.1,286046998.7,N
1602892275.8,286046999.2,N
1602892295.7,286046998.7,N
1602892315.5,286046999.2,N
1602892335.3,286046999.2,N
1602892355.2,286046996.6,Y
1602892375.0,286046999.2,P
1602892375.9,286046999.2,P
1602892395.8,286046996.7,P
1602892415.6,286046996.6,Y
1602892435.4,286046999.0,P
1602892455.3,286046998.5,P
1602892475.1,286047000.9,P
1602892476.0,286047000.9,N
1602892495.8,286046998.8,N
1602892515.7,286046998.7,N
1602892535.5,286046999.3,N
1602892555.3,286046996.8,Y
1602892575.2,286046999.5,P
1602892595.9,286046998.7,P
1602892615.7,286047001.1,P
1602892635.6,286046998.2,N
1602892655.4,286047001.1,N
1602892675.2,286046998.1,N
1602892695.1,286047001.1,N
1602892696.0,286047001.1,N
1602892715.8,286046998.7,N
1602892735.6,286047000.8,N
1602892755.5,286046998.5,N
1602892775.3,286047000.6,N
1602892795.1,286047000.6,N
